ISS (ZARYA) 1 25544U 98067A 26164.51270266 .00008586 00000+0 16263-3 0 9995 2 25544 51.6334 318.2790 0004918 181.0364 179.0615 15.49208508571182 POISK 1 36086U 09060A 26164.51270266 .00008586 00000+0 16263-3 0 9993 2 36086 51.6334 318.2790 0004918 181.0364 179.0615 15.49208508570768 CSS (TIANHE) 1 48274U 21035A 26164.52163056 .00021370 00000+0 25354-3 0 9997 2 48274 41.4694 344.3068 0007878 46.9708 313.1790 15.60655045292595 ISS (NAUKA) 1 49044U 21066A 26164.51270266 .00008586 00000+0 16263-3 0 9991 2 49044 51.6334 318.2790 0004918 181.0364 179.0615 15.49208508570766 FREGAT DEB 1 49271U 11037PF 26151.14915702 .00018955 00000+0 30994-1 0 9992 2 49271 51.6227 53.0895 0914379 245.3590 104.9405 12.41880577222933 CSS (WENTIAN) 1 53239U 22085A 26164.52163056 .00021370 00000+0 25354-3 0 9990 2 53239 41.4694 344.3068 0007878 46.9708 313.1790 15.60655045288238 CSS (MENGTIAN) 1 54216U 22143A 26164.52163056 .00021370 00000+0 25354-3 0 9991 2 54216 41.4694 344.3068 0007878 46.9708 313.1790 15.60655045292846 HRC MONOBLOCK CAMERA 1 66052U 98067XR 26164.64556456 .00078680 00000+0 55144-3 0 9999 2 66052 51.6254 297.3588 0001217 264.7071 95.3788 15.73511265 37448 SZ-21 MODULE 1 66515U 25246C 26164.16087904 .00046494 00000+0 28960-3 0 9990 2 66515 41.4732 332.3964 0006836 324.6850 35.3541 15.76064836 33101 SOYUZ-MS 28 1 66664U 25275A 26164.51270266 .00008586 00000+0 16263-3 0 9994 2 66664 51.6334 318.2790 0004918 181.0364 179.0615 15.49208508570763 DUPLEX 1 66906U 98067XS 26164.59857411 .00039680 00000+0 44325-3 0 9992 2 66906 51.6284 307.5911 0003530 192.4434 167.6473 15.62352729 30097 ISS OBJECT XY 1 66912U 98067XY 26164.59697965 .00446527 91598-4 10891-2 0 9994 2 66912 51.6184 293.1679 0009881 307.8313 52.1800 15.95551128 30279 KNACKSAT-2 1 67683U 98067XZ 26164.63465618 .00047047 00000+0 57979-3 0 9999 2 67683 51.6302 312.3427 0009547 199.6218 160.4409 15.59671586 19728 CORAL 1 67684U 98067YA 26164.58257370 .00190523 00000+0 12091-2 0 9991 2 67684 51.6237 306.7027 0008977 233.8332 126.1837 15.75345800 19799 GXIBA-1 1 67685U 98067YB 26164.64051124 .00057851 00000+0 66935-3 0 9991 2 67685 51.6293 311.6271 0010794 197.7722 162.2896 15.61216829 19732 UITMSAT-2 1 67686U 98067YC 26163.70128385 .00085077 00000+0 87270-3 0 9998 2 67686 51.6279 315.1042 0006429 185.3480 174.7447 15.64188862 19600 LEOPARD 1 67687U 98067YD 26164.60102422 .00051738 00000+0 61435-3 0 9995 2 67687 51.6313 312.1280 0006766 179.9587 180.1408 15.60630978 19640 HMU-SAT2 1 67688U 98067YE 26164.13416176 .00071790 00000+0 78003-3 0 9997 2 67688 51.6294 313.5048 0006489 182.2472 177.8495 15.62792848 19587 CREW DRAGON 12 1 67796U 26031A 26164.51270266 .00008586 00000+0 16263-3 0 9992 2 67796 51.6334 318.2790 0004918 181.0364 179.0615 15.49208508571299 PROGRESS-MS 33 1 68319U 26058A 26164.51270266 .00008586 00000+0 16263-3 0 9993 2 68319 51.6334 318.2790 0004918 181.0364 179.0615 15.49208508570762 CYGNUS NG-24 1 68689U 26079A 26164.51270266 .00008586 00000+0 16263-3 0 9996 2 68689 51.6334 318.2790 0004918 181.0364 179.0615 15.49208508571291 PROGRESS-MS 34 1 68837U 26093A 26164.51270266 .00008586 00000+0 16263-3 0 9997 2 68837 51.6334 318.2790 0004918 181.0364 179.0615 15.49208508571296 TIANZHOU-10 1 69049U 26102A 26164.52163056 .00021370 00000+0 25354-3 0 9990 2 69049 41.4694 344.3068 0007878 46.9708 313.1790 15.60655045 5297 DRAGON CRS-34 1 69103U 26107A 26164.51270266 .00008586 00000+0 16263-3 0 9990 2 69103 51.6334 318.2790 0004918 181.0364 179.0615 15.49208508570764 SHENZHOU-23 (SZ-23) 1 69180U 26113A 26164.52163056 .00021370 00000+0 25354-3 0 9998 2 69180 41.4694 344.3068 0007878 46.9708 313.1790 15.60655045292572